Regional Weather Roundup
Issued by NWS Cleveland, OH

Home | Current Version | Previous Version | Text Only | Print | Product List | Glossary On
Versions: 1 2 3 4 5 6 7 8 9 10 11 12 13 14 15 16 17 18 19 20 21 22 23 24 25 26 27 28 29 30 31 32 33 34 35 36 37 38 39 40 41 42 43 44 45 46 47 48 49 50
000
ASUS41 KCLE 171812
RWRCLE
OHIO REGIONAL WEATHER ROUNDUP
NATIONAL WEATHER SERVICE WILMINGTON, OH
200 PM EDT WED OCT 17 2018

NOTE: "FAIR" INDICATES FEW OR NO CLOUDS BELOW 12,000 FEET WITH NO
SIGNIFICANT WEATHER AND/OR OBSTRUCTIONS TO VISIBILITY.

OHZ001>008-015>018-024>027-034-035-043-044-171900-
   NORTHWEST OHIO

CITY           SKY/WX    TMP DP  RH WIND       PRES   REMARKS
DEFIANCE       PTSUNNY   49  37  63 NW14      30.22R
FINDLAY        FAIR      55  35  47 W16G28    30.16S
TOLEDO EXPRESS PTSUNNY   51  33  50 NW14G26   30.18R
TOLEDO EXEC    PTSUNNY   52  36  54 NW18G25   30.18R
LIMA           PTSUNNY   52  34  50 NW17G29   30.20S
$$

OHZ009>014-019>023-028>033-038-089-171900-
   NORTHEAST OHIO

CITY           SKY/WX    TMP DP  RH WIND       PRES   REMARKS
CLE-HOPKINS    CLOUDY    51  39  63 NW18G26   30.14S
CLE-LAKEFRONT  PTSUNNY   52  41  66 W24G32    30.11R
CUY CO. ARPT   PTSUNNY   50  39  66 NW23G29   30.12R
LORAIN-ELYRIA  CLOUDY    51  35  54 N16G28    30.14R
ASHTABULA      CLOUDY    50  37  61 NW12G29   30.09R
AKRON-CANTON   PTSUNNY   54  36  50 W16       30.11S
WOOSTER        CLOUDY    56  36  47 W16G24    30.12F
MANSFIELD      FAIR      53  34  48 W14G25    30.14S
YOUNGSTOWN     CLOUDY    46  36  68 NW18G26   30.09R
$$

OHZ042-051>053-060>062-070>072-077>081-171900-
  SOUTHWEST OHIO

CITY           SKY/WX    TMP DP  RH WIND       PRES   REMARKS
CINC-COVINGTON FAIR      60  38  43 W16G23    30.23F
CINC-LUNKEN    FAIR      61  41  47 W13G21    30.24F
HAMILTON       FAIR      62  32  32 W17G28    30.24F
DAYTON         FAIR      57  33  40 W21       30.23R
WRIGHT-PAT AFB FAIR      58  30  34 W17G25    30.20S
DAYTON GENERAL FAIR      60  31  33 NW20G25   30.21S
WILMINGTON     FAIR      59  35  40 W16G33    30.20F
$$

OHZ036-037-039>041-045>050-054>059-063>069-073>076-082>088-171900-
  CENTRAL AND SOUTHEAST OHIO

CITY           SKY/WX    TMP DP  RH WIND       PRES   REMARKS
COLUMBUS       FAIR      60  29  30 W25       30.17S
OSU AIRPORT    FAIR      58  32  37 W20G29    30.17F
BOLTON FIELD   SUNNY     59  34  38 NW17G24   30.18F
RICKENBACK AFB FAIR      59  32  36 W24       30.17F
NEWARK         LGT RAIN  60  33  36 W17G28    30.15S
MARION         PTSUNNY   54  33  45 W16G25    30.17
LANCASTER      FAIR      60  35  39 W15G31    30.17F
ZANESVILLE     PTSUNNY   60  35  39 W15G25    30.15F
NEW PHILLY     CLOUDY    58  34  40 W15G21    30.14S
$$



USA.gov is the U.S. government's official web portal to all federal, state and local government web resources and services.